STARLINK-4135 (53248 NORAD) Tracking and Keplerian Element Data

This shows tracking and keplerian element data for the satellite.

Feedback or suggestion? Click here.




ElementValue
Catalog53248
NameSTARLINK-4135
Epoch Orbit130
Epoch Day269.91667824
Epoch Year2022
RAAN94.4647
Inclination53.2192
Eccentricity0.0001464
Argument of Perigee72.7293
Mean Anonmoly141.3334
Mean Motion15.08824451
Decay Rate0.00038256
L11 53248U 22086G 22269.91667824 .00038256 00000+0 24098-2 0 9992
L22 53248 53.2192 94.4647 0001464 72.7293 141.3334 15.08824451 1306

Live tracking and technical data element details for STARLINK-4135 (NORAD 53248). STARLINK-4135 can be tracked NOW for your location showing map with azimuth and elevation plus other details from your city location.

Track the satellite on the map from your city or location and see movement details for azimuth, elevation, latitude, longitude, range, height, and movement on the map or in text.







IsCatalogInMostPopularTable: catalog: 53248, numindb: 2
Update: records affected: 1



GetName: 53248 STARLINK-4135

Hit Count: updated at: Thu, 29 Sep 2022 12:02:36 GMT